Zurück zum Katalog

FENGYUN 1C DEB

AktivSSO
NORAD 31260·DEBRIS·🇨🇳 China

Gestartet May 10, 1999 von Taiyuan Satellite Launch Center

Loading…

Nächste Überflüge (nächste 24 Stunden)

TLE

AktuellSource: Space-Track

Epoche: Sep 12, 2026, 06:04 UTC

1 31260U 99025BMS 26255.25286691  .00001318  00000-0  44914-3 0  9994
2 31260  98.9409 168.1310 0044922 205.8755 307.6481 14.37684700 11186

Verfolge FENGYUN 1C DEB in Echtzeit mit AllMySat

Download on the App Store